This is the latest recevied weather packets stored in our database for station/object KB2SKP. If no packets are shown the sender has not sent any weather packets the latest 10 day(s).
| Time | Temp. | Humidity | Pressure | Rain* | Wind** | Luminosity | Snow |
|---|---|---|---|---|---|---|---|
| 1777413489 | 16.67° C | 53% | 1013.7 hPa | 0 mm | - | 119 W/m² | - |
| 1777413185 | 16.67° C | 52% | 1013.7 hPa | 0 mm | - | 68 W/m² | - |
| 1777412880 | 17.22° C | 51% | 1013.7 hPa | 0 mm | - | 46 W/m² | - |
| 1777412576 | 17.22° C | 51% | 1013.8 hPa | 0 mm | - | 55 W/m² | - |
| 1777412273 | 17.22° C | 52% | 1013.6 hPa | 0 mm | - | 57 W/m² | - |
| 1777411969 | 17.22° C | 50% | 1013.8 hPa | 0 mm | - | 60 W/m² | - |
| 1777411668 | 17.22° C | 50% | 1013.9 hPa | 0 mm | - | 60 W/m² | - |
| 1777411363 | 17.22° C | 50% | 1013.8 hPa | 0 mm | - | 64 W/m² | - |
| 1777411063 | 16.67° C | 49% | 1013.8 hPa | 0 mm | - | 67 W/m² | - |
| 1777410757 | 17.22° C | 47% | 1013.7 hPa | 0 mm | - | 50 W/m² | - |
| 1777410451 | 17.22° C | 49% | 1013.8 hPa | 0 mm | - | 54 W/m² | - |
| 1777410150 | 17.78° C | 50% | 1013.9 hPa | 0 mm | - | 85 W/m² | - |
| 1777409845 | 17.22° C | 50% | 1014 hPa | 0 mm | - | 145 W/m² | - |
| 1777409541 | 17.22° C | 50% | 1014.2 hPa | 0 mm | - | 178 W/m² | - |
| 1777409237 | 17.22° C | 50% | 1014.1 hPa | 0 mm | - | 80 W/m² | - |
| 1777408933 | 17.78° C | 51% | 1014.3 hPa | 0 mm | - | 77 W/m² | - |
| 1777408630 | 18.33° C | 50% | 1014.2 hPa | 0 mm | - | 102 W/m² | - |
| 1777408326 | 17.22° C | 52% | 1014.2 hPa | 0 mm | - | 109 W/m² | - |
| 1777408025 | 17.22° C | 52% | 1014.1 hPa | 0 mm | - | 106 W/m² | - |
| 1777407722 | 17.22° C | 51% | 1014.5 hPa | 0 mm | - | 99 W/m² | - |
| 1777407417 | 17.78° C | 52% | 1014.2 hPa | 0 mm | - | 99 W/m² | - |
| 1777407112 | 17.78° C | 53% | 1014.3 hPa | 0 mm | - | 124 W/m² | - |
| 1777406807 | 17.22° C | 52% | 1014.4 hPa | 0 mm | - | 129 W/m² | - |
| 1777406502 | 17.22° C | 52% | 1014.6 hPa | 0 mm | - | 113 W/m² | - |
| 1777406198 | 17.22° C | 50% | 1014.6 hPa | 0 mm | - | 108 W/m² | - |
* Rain latest hour (hover to see other rain measurements)
** Current wind speed in m/s (hover to see current wind gust speed)